This is the latest recevied weather packets stored in our database for station/object XE2OR-10. If no packets are shown the sender has not sent any weather packets the latest 10 day(s).
| Time | Temp. | Humidity | Pressure | Rain* | Wind** | Luminosity | Snow |
|---|---|---|---|---|---|---|---|
| 1777844632 | 28.89° C | 51% | 1021.4 hPa | 0 mm | - | 573 W/m² | - |
| 1777844329 | 28.33° C | 51% | 1021.1 hPa | 0 mm | - | 532 W/m² | - |
| 1777844029 | 28.33° C | 51% | 1021.4 hPa | 0 mm | - | 541 W/m² | - |
| 1777843729 | 27.22° C | 52% | 1021.5 hPa | 0 mm | - | 576 W/m² | - |
| 1777843432 | 27.78° C | 53% | 1021.6 hPa | 0 mm | - | 602 W/m² | - |
| 1777843129 | 27.78° C | 52% | 1021.6 hPa | 0 mm | - | 580 W/m² | - |
| 1777842832 | 27.78° C | 52% | 1021.7 hPa | 0 mm | - | 588 W/m² | - |
| 1777842529 | 27.78° C | 54% | 1021.7 hPa | 0 mm | - | 592 W/m² | - |
| 1777842229 | 27.78° C | 51% | 1022 hPa | 0 mm | - | 620 W/m² | - |
| 1777841929 | 27.22° C | 53% | 1022.3 hPa | 0 mm | - | 628 W/m² | - |
| 1777841632 | 27.22° C | 53% | 1022.5 hPa | 0 mm | - | 633 W/m² | - |
| 1777841329 | 27.22° C | 52% | 1022.4 hPa | 0 mm | - | 657 W/m² | - |
| 1777841032 | 27.22° C | 53% | 1022.7 hPa | 0 mm | - | 713 W/m² | - |
| 1777840729 | 26.67° C | 54% | 1022.6 hPa | 0 mm | - | 703 W/m² | - |
| 1777840429 | 27.22° C | 52% | 1023 hPa | 0 mm | - | 681 W/m² | - |
| 1777840129 | 27.22° C | 53% | 1022.8 hPa | 0 mm | - | 698 W/m² | - |
| 1777839832 | 27.22° C | 54% | 1023.2 hPa | 0 mm | - | 668 W/m² | - |
| 1777839529 | 27.22° C | 54% | 1023.3 hPa | 0 mm | - | 755 W/m² | - |
| 1777839232 | 26.67° C | 54% | 1023.3 hPa | 0 mm | - | 751 W/m² | - |
| 1777838929 | 26.67° C | 55% | 1023.3 hPa | 0 mm | - | 723 W/m² | - |
| 1777838629 | 26.67° C | 55% | 1023.4 hPa | 0 mm | - | 752 W/m² | - |
| 1777838329 | 26.67° C | 54% | 1023.5 hPa | 0 mm | - | 780 W/m² | - |
| 1777838032 | 26.11° C | 54% | 1023.6 hPa | 0 mm | - | 784 W/m² | - |
| 1777837729 | 26.67° C | 55% | 1023.5 hPa | 0 mm | - | 794 W/m² | - |
| 1777837432 | 26.67° C | 55% | 1023.5 hPa | 0 mm | - | 786 W/m² | - |
* Rain latest hour (hover to see other rain measurements)
** Current wind speed in m/s (hover to see current wind gust speed)